Station: Kuemmersruck, ICAO: ETGK, Synop: Synop: 10771,
Koordinaten: 4926'00''N 01154'00''E, Hoehe: 419m, Entfernung: 27.63km


Station: GAERMERSDORF, ICAO: EDZH, Synop: ,
Koordinaten: 49 25 N 011 54 E, Hoehe: 419m, Entfernung: 28.34km


Station: FEUCHT (USA-AF), ICAO: EDIG, Synop: Synop: 10764,
Koordinaten: 49 23 N 011 11 E, Hoehe: 386m, Entfernung: 30.06km


Station: GRAFENWOHR (USA, ICAO: EDIC, Synop: ,
Koordinaten: 49 42 N 011 56 E, Hoehe: 415m, Entfernung: 34.52km


Station: Grafenwoehr, ICAO: ETIC, Synop: Synop: 10687,
Koordinaten: 4942'00''N 01157'00''E, Hoehe: 415m, Entfernung: 35.51km
2018/02/22 06:56
ETIC 220656Z AUTO 04003KT 9999 CLR M05/M08 A3007 RMK AO2 SLP214 T10501083 FZRANO $


Station: Nuernberg, ICAO: EDDN, Synop: Synop: 10763,
Koordinaten: 4930'00''N 01103'00''E, Hoehe: 318m, Entfernung: 35.55km
2018/02/22 07:20
EDDN 220720Z 02006KT 360V060 9999 FEW023 M04/M08 Q1019 R28/19//94 NOSIG


mehr Wetter
WetterInfo - adds.pl 2.6.003 DL3EL © 2004-2017 [202647]